Location: Boone Canyon
(38.3180°N, 119.2504°W)
Time: 18:18:58
(UTC+00:00)

Lacrosse 5 - Pass Details

Date: 18 September 2020
Orbit: 716 x 723 km, 57.0° (Epoch: 19 October)

Event Time Altitude Azimuth Distance (km) Brightness Sun altitude
Exits shadow 12:14:46 19° 301° (WNW) 1,657 3.4 -17.6°
Maximum altitude 12:16:24 23° 328° (NNW) 1,522 3.4 -17.3°
Drops below altitude 10° 12:20:23 10° 20° (NNE) 2,205 4.9 -16.6°
Sets 12:23:15 0° 35° (NE) 3,129 6.0 -16.0°
